Location: Newark
(48.1500°N, 13.1167°E)
Time: 03:40:15
(UTC+00:00)

ISS - Pass Details

Date: 24 September 2021
Orbit: 417 x 423 km, 51.6° (Epoch: 20 October)

Event Time Altitude Azimuth Distance (km) Brightness Sun altitude
Rises 18:53:18 0° 280° (W) 2,364 1.6 -19.2°
Reaches altitude 10° 18:55:27 10° 287° (WNW) 1,502 0.3 -19.5°
Maximum altitude 18:58:42 44° 1° (N) 596 -2.9 -20.0°
Enters shadow 18:59:05 41° 23° (NNE) 618 -3.0 -20.1°
